| time (UTC) | temp F | wind direction | speed MPH | gust MPH | rain 1hr in | rain 24hr in | rain mn in | humidity % | barometer mb |
| 20260831033737 | 58 | 314 | 5.0 | 7.0 | 0.00 | 0.00 | 0.15 | 67 | 1009.1 |
| 20260831033236 | 58 | 273 | 7.0 | 9.0 | 0.00 | 0.00 | 0.15 | 67 | 1009.1 |
| 20260831032734 | 58 | 247 | 4.0 | 7.0 | 0.00 | 0.00 | 0.15 | 67 | 1009.1 |
| 20260831032234 | 58 | 296 | 3.0 | 5.0 | 0.00 | 0.00 | 0.15 | 67 | 1009.1 |
| 20260831031734 | 58 | 313 | 4.0 | 6.0 | 0.00 | 0.00 | 0.15 | 67 | 1008.8 |
| 20260831031233 | 59 | 232 | 5.0 | 6.0 | 0.00 | 0.00 | 0.15 | 66 | 1008.8 |
| 20260831030732 | 59 | 249 | 4.0 | 7.0 | 0.00 | 0.00 | 0.15 | 65 | 1008.8 |
| 20260831030231 | 59 | 235 | 3.0 | 5.0 | 0.00 | 0.00 | 0.15 | 65 | 1008.8 |
| 20260831025730 | 59 | 306 | 5.0 | 6.0 | 0.00 | 0.00 | 0.15 | 65 | 1009.1 |
| 20260831025231 | 59 | 227 | 2.0 | 2.0 | 0.00 | 0.00 | 0.15 | 65 | 1008.8 |
| 20260831024729 | 59 | 158 | 1.0 | 2.0 | 0.00 | 0.00 | 0.15 | 67 | 1008.8 |
| 20260831024231 | 59 | 252 | 3.0 | 5.0 | 0.00 | 0.00 | 0.15 | 67 | 1008.8 |
| 20260831023729 | 59 | 294 | 4.0 | 6.0 | 0.00 | 0.00 | 0.15 | 66 | 1008.8 |
| 20260831023230 | 59 | 245 | 2.0 | 2.0 | 0.00 | 0.00 | 0.15 | 66 | 1008.8 |
| 20260831022731 | 60 | 274 | 3.0 | 6.0 | 0.00 | 0.00 | 0.15 | 67 | 1008.8 |
| 20260831022231 | 60 | 1 | 4.0 | 5.0 | 0.00 | 0.00 | 0.15 | 67 | 1008.5 |
| 20260831021731 | 60 | 245 | 5.0 | 7.0 | 0.00 | 0.00 | 0.15 | 68 | 1008.8 |
| 20260831021228 | 60 | 297 | 3.0 | 3.0 | 0.00 | 0.00 | 0.15 | 70 | 1008.5 |
| 20260831020729 | 60 | 228 | 2.0 | 3.0 | 0.00 | 0.00 | 0.15 | 72 | 1008.5 |
| 20260831020228 | 60 | 260 | 5.0 | 6.0 | 0.00 | 0.00 | 0.15 | 72 | 1008.5 |
| 20260831015729 | 60 | 287 | 5.0 | 7.0 | 0.00 | 0.00 | 0.15 | 71 | 1008.5 |
| 20260831015228 | 61 | 269 | 3.0 | 5.0 | 0.00 | 0.00 | 0.15 | 71 | 1008.5 |
| 20260831014726 | 61 | 315 | 2.0 | 3.0 | 0.00 | 0.00 | 0.15 | 71 | 1008.5 |
| 20260831014226 | 61 | 286 | 4.0 | 5.0 | 0.00 | 0.00 | 0.15 | 71 | 1008.1 |
| 20260831013726 | 61 | 258 | 3.0 | 5.0 | 0.00 | 0.00 | 0.15 | 71 | 1008.5 |
| 20260831013227 | 61 | 206 | 3.0 | 5.0 | 0.00 | 0.00 | 0.15 | 71 | 1008.5 |
| 20260831012727 | 61 | 349 | 5.0 | 6.0 | 0.00 | 0.00 | 0.15 | 71 | 1008.5 |
| 20260831012226 | 61 | 115 | 3.0 | 6.0 | 0.00 | 0.00 | 0.15 | 71 | 1008.1 |
| 20260831011725 | 61 | 280 | 4.0 | 7.0 | 0.00 | 0.00 | 0.15 | 71 | 1008.1 |
| 20260831011225 | 61 | 274 | 4.0 | 9.0 | 0.00 | 0.00 | 0.15 | 71 | 1008.1 |
| 20260831010725 | 61 | 333 | 2.0 | 2.0 | 0.00 | 0.00 | 0.15 | 71 | 1008.1 |
| 20260831010225 | 61 | 223 | 4.0 | 6.0 | 0.00 | 0.00 | 0.15 | 70 | 1008.1 |
| 20260831005725 | 62 | 227 | 4.0 | 6.0 | 0.00 | 0.00 | 0.15 | 70 | 1007.8 |
| 20260831005225 | 62 | 302 | 2.0 | 2.0 | 0.00 | 0.00 | 0.15 | 69 | 1007.8 |
| 20260831004724 | 62 | 236 | 3.0 | 5.0 | 0.00 | 0.00 | 0.15 | 68 | 1007.8 |
| 20260831004225 | 62 | 303 | 2.0 | 3.0 | 0.00 | 0.00 | 0.15 | 68 | 1007.8 |
| 20260831003723 | 62 | 251 | 4.0 | 5.0 | 0.00 | 0.00 | 0.15 | 67 | 1007.5 |
| 20260831003224 | 63 | 168 | 7.0 | 9.0 | 0.00 | 0.00 | 0.15 | 66 | 1007.5 |
| 20260831002723 | 63 | 156 | 3.0 | 5.0 | 0.00 | 0.00 | 0.15 | 65 | 1007.5 |
| 20260831002222 | 63 | 33 | 2.0 | 3.0 | 0.00 | 0.00 | 0.15 | 65 | 1007.5 |
| 20260831001724 | 64 | 252 | 3.0 | 3.0 | 0.00 | 0.00 | 0.15 | 65 | 1007.5 |
| 20260831001223 | 64 | 10 | 1.0 | 3.0 | 0.00 | 0.00 | 0.15 | 64 | 1007.5 |
| 20260831000723 | 64 | 255 | 2.0 | 3.0 | 0.00 | 0.00 | 0.15 | 64 | 1007.5 |
| 20260831000222 | 64 | 211 | 6.0 | 8.0 | 0.00 | 0.00 | 0.15 | 63 | 1007.1 |
| 20260830235722 | 64 | 148 | 4.0 | 7.0 | 0.00 | 0.00 | 0.15 | 62 | 1007.1 |
| 20260830235222 | 64 | 114 | 4.0 | 9.0 | 0.00 | 0.00 | 0.15 | 62 | 1007.1 |
| 20260830234719 | 64 | 111 | 4.0 | 7.0 | 0.00 | 0.00 | 0.15 | 63 | 1007.1 |
| 20260830234219 | 63 | 355 | 5.0 | 7.0 | 0.00 | 0.00 | 0.15 | 63 | 1007.1 |
| 20260830233726 | 63 | 345 | 4.0 | 6.0 | 0.00 | 0.00 | 0.15 | 64 | 1007.1 |
| 20260830233219 | 63 | 317 | 3.0 | 5.0 | 0.00 | 0.00 | 0.15 | 64 | 1006.8 |
| 20260830232720 | 62 | 199 | 3.0 | 5.0 | 0.00 | 0.00 | 0.15 | 64 | 1006.8 |
| 20260830232219 | 62 | 76 | 5.0 | 6.0 | 0.00 | 0.00 | 0.15 | 67 | 1006.8 |
| 20260830231718 | 62 | 112 | 5.0 | 8.0 | 0.00 | 0.00 | 0.15 | 67 | 1006.8 |
| 20260830231219 | 62 | 257 | 3.0 | 5.0 | 0.00 | 0.00 | 0.15 | 67 | 1006.4 |
| 20260830230718 | 62 | 277 | 7.0 | 8.0 | 0.00 | 0.00 | 0.15 | 68 | 1006.8 |
| 20260830230217 | 62 | 290 | 7.0 | 13.0 | 0.00 | 0.00 | 0.15 | 68 | 1006.8 |
| 20260830225719 | 63 | 23 | 6.0 | 9.0 | 0.00 | 0.00 | 0.15 | 68 | 1006.4 |
| 20260830225217 | 63 | 259 | 2.0 | 2.0 | 0.00 | 0.00 | 0.15 | 67 | 1006.8 |
| 20260830224717 | 63 | 146 | 1.0 | 2.0 | 0.00 | 0.00 | 0.15 | 67 | 1006.8 |
| 20260830224216 | 63 | 234 | 3.0 | 3.0 | 0.00 | 0.00 | 0.15 | 67 | 1006.8 |
| 20260830223716 | 63 | 241 | 7.0 | 9.0 | 0.00 | 0.00 | 0.15 | 67 | 1006.8 |
| 20260830223216 | 63 | 39 | 1.0 | 2.0 | 0.00 | 0.00 | 0.15 | 66 | 1006.8 |
| 20260830222715 | 62 | 181 | 4.0 | 6.0 | 0.00 | 0.00 | 0.15 | 65 | 1006.8 |
| 20260830222217 | 62 | 280 | 3.0 | 5.0 | 0.00 | 0.00 | 0.15 | 66 | 1006.8 |
| 20260830221715 | 62 | 274 | 4.0 | 5.0 | 0.00 | 0.00 | 0.15 | 65 | 1006.4 |
| 20260830221216 | 62 | 239 | 3.0 | 5.0 | 0.00 | 0.00 | 0.15 | 65 | 1006.4 |
| 20260830220715 | 62 | 306 | 9.0 | 16.0 | 0.00 | 0.00 | 0.15 | 66 | 1006.4 |
| 20260830220214 | 62 | 242 | 8.0 | 11.0 | 0.00 | 0.00 | 0.15 | 67 | 1006.4 |
| 20260830215714 | 62 | 313 | 6.0 | 8.0 | 0.00 | 0.00 | 0.15 | 67 | 1006.4 |
| 20260830215213 | 62 | 334 | 4.0 | 6.0 | 0.00 | 0.00 | 0.15 | 66 | 1006.4 |
| 20260830214715 | 62 | 293 | 5.0 | 8.0 | 0.00 | 0.00 | 0.15 | 67 | 1006.4 |
| 20260830214139 | 61 | 318 | 4.0 | 10.0 | 0.00 | 0.00 | 0.15 | 66 | 1006.4 |
| 20260830213640 | 61 | 327 | 9.0 | 11.0 | 0.00 | 0.00 | 0.15 | 68 | 1006.4 |
| 20260830213136 | 61 | 107 | 6.0 | 9.0 | 0.00 | 0.00 | 0.15 | 69 | 1006.4 |
| 20260830212641 | 61 | 276 | 9.0 | 10.0 | 0.00 | 0.00 | 0.15 | 69 | 1006.4 |
| 20260830212142 | 61 | 270 | 5.0 | 8.0 | 0.00 | 0.00 | 0.15 | 71 | 1006.1 |
| 20260830211643 | 60 | 297 | 7.0 | 8.0 | 0.00 | 0.00 | 0.15 | 70 | 1006.4 |
| 20260830211137 | 60 | 317 | 9.0 | 15.0 | 0.00 | 0.00 | 0.15 | 70 | 1006.1 |
| 20260830210640 | 60 | 279 | 6.0 | 9.0 | 0.00 | 0.00 | 0.15 | 69 | 1006.4 |
| 20260830210140 | 59 | 242 | 5.0 | 6.0 | 0.00 | 0.00 | 0.15 | 70 | 1006.4 |
| 20260830205640 | 59 | 10 | 8.0 | 9.0 | 0.00 | 0.00 | 0.15 | 70 | 1006.4 |
| 20260830205139 | 59 | 327 | 5.0 | 7.0 | 0.00 | 0.00 | 0.15 | 71 | 1006.4 |
| 20260830204636 | 58 | 316 | 8.0 | 9.0 | 0.00 | 0.00 | 0.15 | 71 | 1006.4 |
| 20260830204113 | 58 | 318 | 4.0 | 8.0 | 0.00 | 0.00 | 0.15 | 72 | 1006.4 |
| 20260830203611 | 57 | 319 | 8.0 | 11.0 | 0.00 | 0.00 | 0.15 | 72 | 1006.4 |
| 20260830203112 | 57 | 305 | 5.0 | 8.0 | 0.00 | 0.00 | 0.15 | 72 | 1006.1 |
| 20260830202615 | 57 | 259 | 11.0 | 17.0 | 0.00 | 0.00 | 0.15 | 72 | 1006.4 |
| 20260830202113 | 56 | 288 | 6.0 | 8.0 | 0.00 | 0.00 | 0.15 | 72 | 1006.4 |
| 20260830201614 | 56 | 258 | 8.0 | 13.0 | 0.00 | 0.00 | 0.15 | 73 | 1006.4 |
| 20260830201114 | 57 | 231 | 9.0 | 13.0 | 0.00 | 0.00 | 0.15 | 74 | 1006.1 |
| 20260830200614 | 56 | 288 | 5.0 | 7.0 | 0.00 | 0.00 | 0.15 | 74 | 1006.4 |
| 20260830200112 | 56 | 315 | 7.0 | 8.0 | 0.00 | 0.00 | 0.15 | 74 | 1006.4 |
| 20260830195611 | 57 | 342 | 7.0 | 9.0 | 0.00 | 0.00 | 0.15 | 73 | 1006.4 |
| 20260830195112 | 57 | 320 | 8.0 | 13.0 | 0.00 | 0.00 | 0.15 | 71 | 1006.4 |
| 20260830194611 | 56 | 216 | 6.0 | 8.0 | 0.00 | 0.00 | 0.15 | 72 | 1006.4 |
| 20260830194113 | 56 | 317 | 7.0 | 8.0 | 0.00 | 0.00 | 0.15 | 74 | 1006.4 |
| 20260830193614 | 57 | 305 | 6.0 | 9.0 | 0.00 | 0.00 | 0.15 | 75 | 1006.4 |
| 20260830193113 | 57 | 259 | 6.0 | 7.0 | 0.00 | 0.00 | 0.15 | 74 | 1006.4 |
| 20260830192611 | 56 | 329 | 7.0 | 8.0 | 0.00 | 0.00 | 0.15 | 74 | 1006.4 |
| 20260830192113 | 56 | 297 | 8.0 | 9.0 | 0.00 | 0.00 | 0.15 | 75 | 1006.4 |
| 20260830191613 | 55 | 288 | 7.0 | 11.0 | 0.00 | 0.00 | 0.15 | 75 | 1006.4 |
| 20260830191113 | 55 | 181 | 2.0 | 3.0 | 0.00 | 0.00 | 0.15 | 75 | 1006.4 |
| 20260830190612 | 54 | 286 | 7.0 | 9.0 | 0.00 | 0.00 | 0.15 | 75 | 1006.4 |
| 20260830190111 | 54 | 270 | 8.0 | 10.0 | 0.00 | 0.00 | 0.15 | 76 | 1006.4 |
| 20260830185539 | 53 | 303 | 4.0 | 7.0 | 0.00 | 0.00 | 0.15 | 78 | 1006.4 |
| 20260830185039 | 53 | 317 | 5.0 | 6.0 | 0.00 | 0.00 | 0.15 | 79 | 1006.8 |
| 20260830184537 | 52 | 202 | 5.0 | 8.0 | 0.00 | 0.00 | 0.15 | 80 | 1006.8 |
| 20260830184040 | 52 | 237 | 6.0 | 8.0 | 0.00 | 0.00 | 0.15 | 80 | 1006.8 |
| 20260830183538 | 52 | 288 | 5.0 | 6.0 | 0.00 | 0.00 | 0.15 | 81 | 1006.8 |
| 20260830183037 | 51 | 213 | 1.0 | 2.0 | 0.00 | 0.00 | 0.15 | 83 | 1006.8 |
| 20260830182538 | 51 | 257 | 3.0 | 5.0 | 0.00 | 0.00 | 0.15 | 83 | 1006.8 |
| 20260830182038 | 51 | 250 | 7.0 | 9.0 | 0.00 | 0.00 | 0.15 | 83 | 1006.8 |
| 20260830181538 | 51 | 314 | 7.0 | 9.0 | 0.00 | 0.00 | 0.15 | 84 | 1006.4 |
| 20260830181036 | 51 | 304 | 4.0 | 5.0 | 0.00 | 0.00 | 0.15 | 85 | 1006.4 |
| 20260830180540 | 50 | 303 | 1.0 | 2.0 | 0.00 | 0.00 | 0.15 | 86 | 1006.4 |
| 20260830180040 | 50 | 254 | 5.0 | 8.0 | 0.00 | 0.00 | 0.15 | 85 | 1006.4 |
| 20260830175538 | 50 | 213 | 2.0 | 3.0 | 0.00 | 0.00 | 0.15 | 86 | 1006.4 |
| 20260830175041 | 50 | 302 | 3.0 | 3.0 | 0.00 | 0.00 | 0.15 | 86 | 1006.1 |
| 20260830174537 | 50 | 297 | 7.0 | 9.0 | 0.00 | 0.00 | 0.15 | 86 | 1006.4 |
| 20260830174039 | 50 | 271 | 3.0 | 5.0 | 0.00 | 0.00 | 0.15 | 88 | 1006.4 |
| 20260830173515 | 49 | 355 | 4.0 | 6.0 | 0.00 | 0.00 | 0.15 | 88 | 1006.4 |
| 20260830173011 | 49 | 329 | 3.0 | 5.0 | 0.00 | 0.00 | 0.15 | 89 | 1006.4 |
| 20260830172516 | 49 | 277 | 5.0 | 7.0 | 0.00 | 0.00 | 0.15 | 90 | 1006.4 |
| 20260830171943 | 49 | 317 | 5.0 | 6.0 | 0.00 | 0.00 | 0.15 | 90 | 1006.4 |
| 20260830171442 | 49 | 309 | 6.0 | 9.0 | 0.00 | 0.00 | 0.15 | 91 | 1006.4 |
| 20260830170941 | 48 | 304 | 2.0 | 2.0 | 0.00 | 0.00 | 0.15 | 91 | 1006.4 |
| 20260830170440 | 48 | 299 | 6.0 | 9.0 | 0.00 | 0.00 | 0.15 | 92 | 1006.4 |
| 20260830165940 | 48 | 214 | 2.0 | 3.0 | 0.00 | 0.00 | 0.15 | 93 | 1006.4 |
| 20260830165440 | 48 | 291 | 1.0 | 2.0 | 0.00 | 0.00 | 0.15 | 93 | 1006.4 |
| 20260830164939 | 48 | 235 | 2.0 | 3.0 | 0.00 | 0.00 | 0.15 | 93 | 1006.8 |
| 20260830164442 | 48 | 302 | 4.0 | 6.0 | 0.00 | 0.00 | 0.15 | 94 | 1006.8 |
| 20260830163940 | 48 | 235 | 2.0 | 2.0 | 0.00 | 0.00 | 0.15 | 95 | 1006.8 |
| 20260830163438 | 48 | 333 | 3.0 | 5.0 | 0.00 | 0.00 | 0.15 | 96 | 1006.8 |
| 20260830162937 | 48 | 177 | 1.0 | 2.0 | 0.00 | 0.00 | 0.15 | 96 | 1006.8 |
| 20260830162439 | 48 | 299 | 1.0 | 2.0 | 0.00 | 0.00 | 0.15 | 96 | 1006.8 |
| 20260830161937 | 48 | 276 | 2.0 | 3.0 | 0.00 | 0.00 | 0.14 | 96 | 1006.8 |
| 20260830161438 | 48 | 271 | 4.0 | 5.0 | 0.00 | 0.00 | 0.12 | 95 | 1006.8 |
| 20260830160937 | 48 | 271 | 3.0 | 3.0 | 0.00 | 0.00 | 0.12 | 94 | 1006.8 |
| 20260830160438 | 48 | 263 | 3.0 | 5.0 | 0.00 | 0.00 | 0.12 | 94 | 1006.8 |
| 20260830155937 | 48 | 206 | 0.0 | 1.0 | 0.00 | 0.00 | 0.12 | 94 | 1006.8 |
| 20260830155435 | 48 | 275 | 0.0 | 0.0 | 0.00 | 0.00 | 0.12 | 94 | 1006.8 |
| 20260830154938 | 48 | 246 | 1.0 | 2.0 | 0.00 | 0.00 | 0.12 | 93 | 1006.8 |
| 20260830154436 | 48 | 268 | 3.0 | 5.0 | 0.00 | 0.00 | 0.12 | 93 | 1006.8 |
| 20260830153936 | 48 | 258 | 3.0 | 3.0 | 0.00 | 0.00 | 0.12 | 94 | 1006.8 |
| 20260830153435 | 48 | 288 | 4.0 | 5.0 | 0.00 | 0.00 | 0.12 | 96 | 1006.8 |
| 20260830152935 | 48 | 303 | 5.0 | 7.0 | 0.00 | 0.00 | 0.12 | 95 | 1006.8 |
| 20260830152435 | 48 | 282 | 4.0 | 6.0 | 0.00 | 0.00 | 0.12 | 95 | 1006.8 |
| 20260830151933 | 48 | 253 | 4.0 | 7.0 | 0.00 | 0.00 | 0.12 | 95 | 1007.1 |
| 20260830151434 | 48 | 288 | 2.0 | 2.0 | 0.00 | 0.00 | 0.12 | 94 | 1007.5 |
| 20260830150933 | 48 | 208 | 1.0 | 1.0 | 0.00 | 0.00 | 0.12 | 93 | 1007.1 |
| 20260830150434 | 49 | 236 | 0.0 | 1.0 | 0.00 | 0.00 | 0.11 | 93 | 1007.1 |
| 20260830145933 | 49 | 225 | 1.0 | 2.0 | 0.00 | 0.00 | 0.08 | 92 | 1007.5 |
| 20260830145431 | 49 | 202 | 0.0 | 0.0 | 0.00 | 0.00 | 0.06 | 91 | 1007.1 |
| 20260830144932 | 49 | 230 | 1.0 | 1.0 | 0.00 | 0.00 | 0.02 | 88 | 1007.1 |
| 20260830144432 | 50 | 305 | 2.0 | 3.0 | 0.00 | 0.00 | 0.00 | 85 | 1007.1 |
| 20260830143932 | 50 | 268 | 2.0 | 2.0 | 0.00 | 0.00 | 0.00 | 84 | 1007.1 |
| 20260830143431 | 50 | 263 | 3.0 | 5.0 | 0.00 | 0.00 | 0.00 | 82 | 1007.5 |
| 20260830142930 | 50 | 233 | 0.0 | 1.0 | 0.00 | 0.00 | 0.00 | 82 | 1007.1 |
| 20260830142429 | 50 | 255 | 0.0 | 1.0 | 0.00 | 0.00 | 0.00 | 80 | 1007.1 |
| 20260830141931 | 50 | 261 | 2.0 | 2.0 | 0.00 | 0.00 | 0.00 | 79 | 1007.1 |
| 20260830141429 | 50 | 210 | 3.0 | 5.0 | 0.00 | 0.00 | 0.00 | 79 | 1007.1 |
| 20260830140929 | 50 | 232 | 3.0 | 5.0 | 0.00 | 0.00 | 0.00 | 79 | 1007.1 |
| 20260830140428 | 50 | 292 | 0.0 | 2.0 | 0.00 | 0.00 | 0.00 | 79 | 1006.8 |
| 20260830135927 | 50 | 167 | 0.0 | 1.0 | 0.00 | 0.00 | 0.00 | 79 | 1006.8 |
| 20260830135428 | 50 | 183 | 2.0 | 2.0 | 0.00 | 0.00 | 0.00 | 78 | 1006.4 |
| 20260830134927 | 50 | 236 | 0.0 | 1.0 | 0.00 | 0.00 | 0.00 | 78 | 1006.8 |
| 20260830134426 | 51 | 254 | 2.0 | 3.0 | 0.00 | 0.00 | 0.00 | 77 | 1006.8 |
| 20260830133926 | 51 | 215 | 0.0 | 1.0 | 0.00 | 0.00 | 0.00 | 77 | 1006.8 |
| 20260830133425 | 51 | 258 | 0.0 | 0.0 | 0.00 | 0.00 | 0.00 | 76 | 1006.8 |
| 20260830132926 | 51 | 227 | 0.0 | 0.0 | 0.00 | 0.00 | 0.00 | 76 | 1006.8 |
| 20260830132424 | 51 | 259 | 2.0 | 3.0 | 0.00 | 0.00 | 0.00 | 75 | 1006.4 |
| 20260830131924 | 51 | 290 | 4.0 | 6.0 | 0.00 | 0.00 | 0.00 | 75 | 1006.4 |
| 20260830131423 | 51 | 277 | 1.0 | 2.0 | 0.00 | 0.00 | 0.00 | 74 | 1006.4 |
| 20260830130922 | 51 | 126 | 0.0 | 0.0 | 0.00 | 0.00 | 0.00 | 73 | 1006.4 |
| 20260830130424 | 51 | 264 | 2.0 | 2.0 | 0.00 | 0.00 | 0.00 | 73 | 1006.4 |
| 20260830125923 | 51 | 293 | 3.0 | 3.0 | 0.00 | 0.00 | 0.00 | 73 | 1006.4 |
| 20260830125422 | 51 | 6 | 0.0 | 1.0 | 0.00 | 0.00 | 0.00 | 73 | 1006.4 |
| 20260830124921 | 51 | 254 | 2.0 | 2.0 | 0.00 | 0.00 | 0.00 | 73 | 1006.4 |
| 20260830124422 | 51 | 38 | 0.0 | 1.0 | 0.00 | 0.00 | 0.00 | 72 | 1006.4 |
| 20260830123923 | 51 | 187 | 0.0 | 0.0 | 0.00 | 0.00 | 0.00 | 72 | 1006.8 |
| 20260830123423 | 51 | 230 | 1.0 | 1.0 | 0.00 | 0.00 | 0.00 | 71 | 1006.4 |
| 20260830122923 | 51 | 284 | 0.0 | 1.0 | 0.00 | 0.00 | 0.00 | 70 | 1006.8 |
| 20260830122422 | 52 | 254 | 3.0 | 3.0 | 0.00 | 0.00 | 0.00 | 70 | 1006.8 |
| 20260830121920 | 52 | 318 | 1.0 | 1.0 | 0.00 | 0.00 | 0.00 | 70 | 1006.8 |
| 20260830121420 | 52 | 220 | 1.0 | 2.0 | 0.00 | 0.00 | 0.00 | 70 | 1006.8 |
| 20260830120920 | 52 | 300 | 1.0 | 2.0 | 0.00 | 0.00 | 0.00 | 70 | 1006.8 |
| 20260830120419 | 52 | 301 | 3.0 | 5.0 | 0.00 | 0.00 | 0.00 | 69 | 1006.8 |
| 20260830115918 | 52 | 281 | 1.0 | 1.0 | 0.00 | 0.00 | 0.00 | 69 | 1006.8 |
| 20260830115419 | 51 | 242 | 5.0 | 6.0 | 0.00 | 0.00 | 0.00 | 69 | 1006.8 |
| 20260830114919 | 51 | 315 | 5.0 | 7.0 | 0.00 | 0.00 | 0.00 | 69 | 1006.4 |
| 20260830114419 | 51 | 251 | 3.0 | 3.0 | 0.00 | 0.00 | 0.00 | 69 | 1006.4 |
| 20260830113919 | 52 | 249 | 5.0 | 6.0 | 0.00 | 0.00 | 0.00 | 69 | 1006.4 |
| 20260830113417 | 52 | 324 | 3.0 | 5.0 | 0.00 | 0.00 | 0.00 | 70 | 1006.4 |
| 20260830112841 | 52 | 282 | 3.0 | 3.0 | 0.00 | 0.00 | 0.00 | 70 | 1006.4 |
| 20260830112339 | 52 | 273 | 5.0 | 7.0 | 0.00 | 0.00 | 0.00 | 70 | 1006.4 |
| 20260830111835 | 52 | 262 | 3.0 | 6.0 | 0.00 | 0.00 | 0.00 | 69 | 1006.8 |
| 20260830111336 | 52 | 301 | 3.0 | 5.0 | 0.00 | 0.00 | 0.00 | 69 | 1006.8 |
| 20260830110840 | 52 | 199 | 1.0 | 2.0 | 0.00 | 0.00 | 0.00 | 69 | 1006.4 |
| 20260830110337 | 52 | 268 | 3.0 | 5.0 | 0.00 | 0.00 | 0.00 | 69 | 1006.4 |
| 20260830105837 | 52 | 298 | 2.0 | 3.0 | 0.00 | 0.00 | 0.00 | 69 | 1006.8 |
| 20260830105316 | 52 | 245 | 3.0 | 3.0 | 0.00 | 0.00 | 0.00 | 69 | 1006.4 |
| 20260830104816 | 52 | 286 | 2.0 | 2.0 | 0.00 | 0.00 | 0.00 | 69 | 1006.4 |
| 20260830104313 | 52 | 236 | 4.0 | 5.0 | 0.00 | 0.00 | 0.00 | 70 | 1006.4 |
| 20260830103813 | 52 | 255 | 2.0 | 3.0 | 0.00 | 0.00 | 0.00 | 70 | 1006.4 |
| 20260830103313 | 52 | 315 | 3.0 | 3.0 | 0.00 | 0.00 | 0.00 | 70 | 1006.4 |
| 20260830102813 | 52 | 20 | 2.0 | 3.0 | 0.00 | 0.00 | 0.00 | 70 | 1006.4 |
| 20260830102312 | 52 | 295 | 3.0 | 3.0 | 0.00 | 0.00 | 0.00 | 71 | 1006.4 |
| 20260830101813 | 52 | 251 | 1.0 | 1.0 | 0.00 | 0.00 | 0.00 | 71 | 1006.4 |
| 20260830101311 | 52 | 277 | 5.0 | 7.0 | 0.00 | 0.00 | 0.00 | 71 | 1006.4 |
| 20260830100810 | 52 | 286 | 1.0 | 3.0 | 0.00 | 0.00 | 0.00 | 71 | 1006.4 |
| 20260830100310 | 52 | 267 | 5.0 | 6.0 | 0.00 | 0.00 | 0.00 | 70 | 1006.4 |
| 20260830095810 | 52 | 319 | 6.0 | 8.0 | 0.00 | 0.00 | 0.00 | 70 | 1006.4 |
| 20260830095312 | 52 | 273 | 2.0 | 5.0 | 0.00 | 0.00 | 0.00 | 70 | 1006.4 |
| 20260830094810 | 52 | 266 | 5.0 | 8.0 | 0.00 | 0.00 | 0.00 | 70 | 1006.1 |
| 20260830094312 | 52 | 231 | 3.0 | 6.0 | 0.00 | 0.00 | 0.00 | 71 | 1006.1 |
| 20260830093812 | 52 | 287 | 3.0 | 5.0 | 0.00 | 0.00 | 0.00 | 71 | 1006.4 |
| 20260830093313 | 52 | 275 | 3.0 | 3.0 | 0.00 | 0.00 | 0.00 | 71 | 1006.1 |
| 20260830092741 | 52 | 314 | 4.0 | 5.0 | 0.00 | 0.00 | 0.00 | 72 | 1006.1 |
| 20260830092237 | 52 | 292 | 5.0 | 7.0 | 0.00 | 0.00 | 0.00 | 74 | 1006.4 |
| 20260830091737 | 52 | 334 | 4.0 | 6.0 | 0.00 | 0.00 | 0.00 | 73 | 1006.4 |
| 20260830091240 | 52 | 281 | 4.0 | 6.0 | 0.00 | 0.00 | 0.00 | 73 | 1006.4 |
| 20260830090742 | 52 | 304 | 5.0 | 8.0 | 0.00 | 0.00 | 0.00 | 72 | 1006.4 |
| 20260830090240 | 52 | 310 | 4.0 | 5.0 | 0.00 | 0.00 | 0.00 | 73 | 1006.4 |
| 20260830085736 | 52 | 265 | 1.0 | 2.0 | 0.00 | 0.00 | 0.00 | 73 | 1006.4 |
| 20260830085241 | 53 | 4 | 2.0 | 2.0 | 0.00 | 0.00 | 0.00 | 73 | 1006.4 |
| 20260830084714 | 53 | 288 | 6.0 | 8.0 | 0.00 | 0.00 | 0.00 | 73 | 1006.4 |
| 20260830084214 | 53 | 329 | 5.0 | 6.0 | 0.00 | 0.00 | 0.00 | 73 | 1006.4 |
| 20260830083648 | 53 | 283 | 5.0 | 7.0 | 0.00 | 0.00 | 0.00 | 73 | 1006.4 |
| 20260830083148 | 53 | 257 | 8.0 | 10.0 | 0.00 | 0.00 | 0.00 | 73 | 1006.4 |
| 20260830082648 | 53 | 253 | 3.0 | 6.0 | 0.00 | 0.00 | 0.00 | 73 | 1006.4 |
| 20260830082148 | 53 | 98 | 2.0 | 3.0 | 0.00 | 0.00 | 0.00 | 73 | 1006.4 |
| 20260830081647 | 53 | 274 | 7.0 | 8.0 | 0.00 | 0.00 | 0.00 | 73 | 1006.4 |
| 20260830081147 | 53 | 301 | 5.0 | 8.0 | 0.00 | 0.00 | 0.00 | 72 | 1006.4 |
| 20260830080649 | 54 | 252 | 2.0 | 3.0 | 0.00 | 0.00 | 0.00 | 72 | 1006.4 |
| 20260830080151 | 54 | 270 | 4.0 | 7.0 | 0.00 | 0.00 | 0.00 | 72 | 1006.4 |
| 20260830075647 | 54 | 263 | 4.0 | 5.0 | 0.00 | 0.00 | 0.00 | 72 | 1006.4 |
| 20260830075148 | 54 | 340 | 3.0 | 5.0 | 0.00 | 0.00 | 0.00 | 72 | 1006.4 |
| 20260830074648 | 55 | 221 | 5.0 | 8.0 | 0.00 | 0.00 | 0.00 | 72 | 1006.4 |
| 20260830074146 | 55 | 297 | 5.0 | 7.0 | 0.00 | 0.00 | 0.00 | 70 | 1006.4 |
| 20260830073644 | 55 | 183 | 3.0 | 5.0 | 0.00 | 0.00 | 0.00 | 69 | 1006.4 |
| 20260830073146 | 55 | 312 | 3.0 | 5.0 | 0.00 | 0.00 | 0.00 | 67 | 1006.4 |
| 20260830072647 | 55 | 303 | 8.0 | 10.0 | 0.00 | 0.00 | 0.00 | 69 | 1006.4 |
| 20260830072146 | 55 | 247 | 3.0 | 5.0 | 0.00 | 0.00 | 0.00 | 71 | 1006.4 |
| 20260830071649 | 55 | 239 | 1.0 | 2.0 | 0.00 | 0.00 | 0.00 | 72 | 1006.4 |
| 20260830071145 | 55 | 283 | 1.0 | 2.0 | 0.00 | 0.00 | 0.00 | 73 | 1006.4 |
| 20260830070645 | 55 | 301 | 4.0 | 6.0 | 0.00 | 0.00 | 0.00 | 74 | 1006.8 |
| 20260830070147 | 55 | 319 | 6.0 | 8.0 | 0.00 | 0.00 | 0.00 | 75 | 1006.4 |
| 20260830065643 | 55 | 256 | 6.0 | 9.0 | 0.00 | 0.00 | 0.00 | 76 | 1006.4 |
| 20260830065144 | 55 | 125 | 2.0 | 3.0 | 0.00 | 0.00 | 0.00 | 76 | 1006.8 |
| 20260830064645 | 56 | 222 | 0.0 | 1.0 | 0.00 | 0.00 | 0.00 | 75 | 1006.8 |
| 20260830064043 | 56 | 264 | 3.0 | 6.0 | 0.00 | 0.00 | 0.00 | 75 | 1006.4 |
| 20260830063542 | 56 | 253 | 1.0 | 2.0 | 0.00 | 0.00 | 0.00 | 76 | 1006.8 |
| 20260830063042 | 56 | 216 | 2.0 | 2.0 | 0.00 | 0.00 | 0.00 | 75 | 1006.8 |
| 20260830062543 | 56 | 274 | 4.0 | 6.0 | 0.00 | 0.00 | 0.00 | 75 | 1007.1 |
| 20260830062041 | 57 | 326 | 4.0 | 6.0 | 0.00 | 0.00 | 0.00 | 75 | 1007.1 |
| 20260830061541 | 57 | 281 | 1.0 | 1.0 | 0.00 | 0.00 | 0.00 | 75 | 1006.8 |
| 20260830061041 | 57 | 338 | 3.0 | 6.0 | 0.00 | 0.00 | 0.00 | 74 | 1007.1 |
| 20260830060541 | 58 | 320 | 1.0 | 2.0 | 0.00 | 0.00 | 0.00 | 73 | 1006.8 |
| 20260830060042 | 58 | 45 | 1.0 | 2.0 | 0.00 | 0.00 | 0.00 | 70 | 1006.4 |
| 20260830055539 | 58 | 270 | 3.0 | 5.0 | 0.00 | 0.00 | 0.00 | 63 | 1006.8 |
| 20260830055039 | 58 | 212 | 0.0 | 0.0 | 0.00 | 0.00 | 0.00 | 57 | 1006.8 |
| 20260830054540 | 59 | 226 | 0.0 | 0.0 | 0.00 | 0.00 | 0.00 | 56 | 1006.4 |
| 20260830054039 | 59 | 182 | 0.0 | 0.0 | 0.00 | 0.00 | 0.00 | 56 | 1006.8 |
| 20260830053538 | 59 | 250 | 0.0 | 1.0 | 0.00 | 0.00 | 0.00 | 56 | 1006.4 |
| 20260830053039 | 59 | 212 | 0.0 | 1.0 | 0.00 | 0.00 | 0.00 | 56 | 1006.4 |
| 20260830052539 | 59 | 213 | 0.0 | 0.0 | 0.00 | 0.00 | 0.00 | 55 | 1006.4 |
| 20260830052037 | 60 | 281 | 1.0 | 2.0 | 0.00 | 0.00 | 0.00 | 55 | 1006.8 |
| 20260830051538 | 60 | 228 | 1.0 | 1.0 | 0.00 | 0.00 | 0.00 | 55 | 1006.8 |
| 20260830051037 | 60 | 236 | 0.0 | 1.0 | 0.00 | 0.00 | 0.00 | 55 | 1006.8 |
| 20260830050540 | 60 | 247 | 2.0 | 3.0 | 0.00 | 0.00 | 0.00 | 54 | 1006.8 |
| 20260830045939 | 61 | 335 | 1.0 | 2.0 | 0.00 | 0.00 | 0.00 | 54 | 1006.8 |
| 20260830045438 | 61 | 246 | 2.0 | 2.0 | 0.00 | 0.00 | 0.00 | 54 | 1006.8 |
| 20260830044937 | 61 | 254 | 3.0 | 3.0 | 0.00 | 0.00 | 0.00 | 53 | 1006.8 |
| 20260830044437 | 61 | 211 | 0.0 | 1.0 | 0.00 | 0.00 | 0.00 | 52 | 1006.4 |
| 20260830043936 | 61 | 240 | 0.0 | 1.0 | 0.00 | 0.00 | 0.00 | 52 | 1006.4 |
| 20260830043436 | 62 | 231 | 1.0 | 2.0 | 0.00 | 0.00 | 0.00 | 52 | 1006.4 |
| 20260830042935 | 62 | 240 | 0.0 | 1.0 | 0.00 | 0.00 | 0.00 | 52 | 1006.4 |
| 20260830042438 | 62 | 223 | 0.0 | 1.0 | 0.00 | 0.00 | 0.00 | 52 | 1006.4 |
| 20260830041837 | 62 | 257 | 2.0 | 3.0 | 0.00 | 0.00 | 0.00 | 51 | 1006.4 |
| 20260830041335 | 62 | 321 | 1.0 | 2.0 | 0.00 | 0.00 | 0.00 | 51 | 1006.4 |
| 20260830040835 | 62 | 236 | 2.0 | 2.0 | 0.00 | 0.00 | 0.00 | 51 | 1006.1 |
| 20260830040336 | 62 | 169 | 1.0 | 1.0 | 0.00 | 0.00 | 0.00 | 51 | 1006.1 |
| 20260830035834 | 63 | 317 | 2.0 | 2.0 | 0.00 | 0.00 | 0.00 | 51 | 1006.1 |
| 20260830035333 | 63 | 303 | 1.0 | 2.0 | 0.00 | 0.00 | 0.00 | 51 | 1006.1 |
| 20260830034833 | 63 | 300 | 2.0 | 3.0 | 0.00 | 0.00 | 0.00 | 51 | 1006.1 |
| 20260830034333 | 63 | 222 | 3.0 | 3.0 | 0.00 | 0.00 | 0.00 | 51 | 1005.8 |